sat.trackr.live / text

‹ back to catalog

STARLINK-4556

NORAD 53578 · 2022-101BD

PAYLOAD ACTIVE UNKNOWN

§ Identity

Operator
Country
US
Launch date
2022-08-19
Launch site
AFETR
Launch vehicle
Mass (kg)
RCS (m²)

Purposes: comms

External: N2YO · Heavens-Above · Gunter

§ Orbital elements

Epoch: 2026-09-19T10:57:48.567168Z

Period
93.85 min
Inclination
53.1580°
Eccentricity
0.0001208
Mean motion
15.34388128 rev/d
Perigee alt
461.9 km
Apogee alt
463.6 km
Semi-major
6,840.9 km
B*
4.7780e-6
RAAN
248.4419°
Arg perigee
85.8228°
Mean anomaly
274.2913°
Rev number
22,591

§ Raw data

STARLINK-45561 53578U 22101BD  26262.45681212 -.00000215  00000+0  47780-5 0  99902 53578  53.1580 248.4419 0001208  85.8228 274.2913 15.34388128225918

JSON: /api/v1/satellites/53578 · /tle

For live sub-satellite position, see the globe view (requires WebGL).

§ Visibility from observer

Set your observer location to see the next 7 days of passes ≥ 10°. The values pass through the URL so the page stays shareable.

No JS? Fill the form by hand. The geolocation button needs JavaScript.